Estherville, IA

11:03 PM CST on February 06, 2016 (GMT -0600)
Estherville Municipal

Weather History for KEST - December, 2012

Change the Weather History Date:

Thursday, December 13, 2012

  Actual Average Record
Temperature  
Mean Temperature 27 °F 19 °F  
Max Temperature 35 °F 28 °F 58 °F (1968)
Min Temperature 19 °F 11 °F -18 °F (1985)
Degree Days  
Heating Degree Days 38 46  
Month to date heating degree days 441 564  
Since 1 July heating degree days 2047 2283  
Cooling Degree Days 0 0  
Month to date cooling degree days 0 0  
Year to date cooling degree days 886 593  
Moisture  
Dew Point 19 °F    
Average Humidity 75    
Maximum Humidity 92    
Minimum Humidity 58    
Precipitation  
Precipitation 0.00 in 0.02 in 0.36 in (1972)
Month to date precipitation 0.21 0.51  
Sea Level Pressure  
Sea Level Pressure 30.03 in    
Wind  
Wind Speed 8 mph (NW)    
Max Wind Speed 20 mph    
Max Gust Speed 24 mph    
Visibility 8 miles    
Events      
T = Trace of Precipitation, MM = Missing Value Source: NWS Daily Summary

Daily Weather History Graph

Daily Weather History Graph

Search for Another Location

Airport or City:

Trip Planner

Search our weather history database for the weather conditions in past years. The results will help you decide how hot, cold, wet, or windy it might be!

Date:

Astronomy

Dec. 13, 2012 Rise Set
Actual Time 7:43 AM CST 4:43 PM CST
Civil Twilight 7:11 AM CST 5:15 PM CST
Nautical Twilight 6:34 AM CST 5:51 PM CST
Astronomical Twilight 6:00 AM CST 6:26 PM CST
Moon 7:52 AM CST (12/13) 5:27 PM CST (12/13)
Length of Visible Light 10h 04m
Length of Day
8h 59m
New Moon, 0% of the Moon is Illuminated
Dec 13
New Moon
Dec 19
First Quarter
Dec 28
Full
Jan 4
Last Quarter
Jan 11
New

Hourly Weather History & Observations

Time (CST) Temp. Windchill Dew Point Humidity Pressure Visibility Wind Dir Wind Speed Gust Speed Precip Events Conditions
12:52 AM 30.9 °F 20.2 °F 19.0 °F 61% 29.93 in 10.0 mi South 15.0 mph - N/A   Clear
1:52 AM 30.0 °F 18.7 °F 18.0 °F 61% 29.91 in 10.0 mi South 16.1 mph - N/A   Clear
2:52 AM 30.0 °F 19.5 °F 17.1 °F 59% 29.92 in 10.0 mi South 13.8 mph - N/A   Clear
3:52 AM 30.0 °F 18.3 °F 17.1 °F 59% 29.90 in 10.0 mi South 17.3 mph - N/A   Clear
5:52 AM 27.0 °F 18.7 °F 18.0 °F 69% 29.93 in 10.0 mi South 8.1 mph - N/A   Clear
6:52 AM 26.1 °F 17.6 °F 17.1 °F 69% 29.95 in 10.0 mi South 8.1 mph - N/A   Clear
7:52 AM 24.1 °F 17.0 °F 17.1 °F 75% 29.96 in 10.0 mi South 5.8 mph - N/A   Clear
8:52 AM 26.1 °F - 19.0 °F 75% 29.99 in 10.0 mi Calm Calm - N/A   Clear
9:52 AM 32.0 °F 27.5 °F 21.0 °F 64% 30.01 in 10.0 mi NW 4.6 mph - N/A   Clear
10:52 AM 34.0 °F 26.0 °F 21.9 °F 61% 30.03 in 10.0 mi NNW 10.4 mph - N/A   Clear
11:52 AM 33.1 °F 26.1 °F 21.9 °F 64% 30.04 in 10.0 mi NW 8.1 mph - N/A   Clear
12:52 PM 35.1 °F 27.9 °F 23.0 °F 61% 30.03 in 9.0 mi NNW 9.2 mph - N/A   Clear
1:52 PM 34.0 °F 28.8 °F 23.0 °F 64% 30.04 in 10.0 mi NW 5.8 mph - N/A   Clear
2:52 PM 32.0 °F 23.6 °F 23.0 °F 69% 30.06 in 9.0 mi North 10.4 mph - N/A   Clear
3:52 PM 30.0 °F 23.2 °F 23.0 °F 75% 30.09 in 8.0 mi North 6.9 mph - N/A   Clear
6:52 PM 21.9 °F 13.4 °F 19.9 °F 92% 30.13 in 5.0 mi NNE 6.9 mph - N/A   Clear
7:52 PM 21.0 °F 13.4 °F 18.0 °F 88% 30.14 in 5.0 mi North 5.8 mph - N/A   Clear
8:52 PM 21.0 °F 12.4 °F 18.0 °F 88% 30.12 in 5.0 mi North 6.9 mph - N/A   Clear
9:52 PM 19.9 °F - 18.0 °F 92% 30.14 in 6.0 mi Calm Calm - N/A   Clear
10:52 PM 19.9 °F 14.9 °F 17.1 °F 89% 30.14 in 6.0 mi North 3.5 mph - N/A   Clear
11:52 PM 19.0 °F - 16.0 °F 88% 30.16 in 6.0 mi Calm Calm - N/A   Clear